User: anonymous   Login
Location: Fort Wayne
(41.1310°N, 85.1290°W)
Time: 10:23:45
(UTC-04:00)
Language:

Cosmos 2219 Rocket - Orbit

View from above orbital plane
View from above orbital plane
View from above satellite
View from above satellite

Ground track
Ground track

The orbit data is extracted from the following two-line orbital elements,

1 22220U 92076B   14302.15547093  .00000309  00000-0  17977-3 0  4447
2 22220 071.0008 284.1446 0015136 295.6595 137.8934 14.16327938134559
Epoch (UTC): 29 October 2014 03:43:52
Eccentricity: 0.0015136
inclination: 71.0008°
perigee height: 827 km
apogee height: 849 km
right ascension of ascending node: 284.1446°
argument of perigee: 295.6595°
revolutions per day: 14.16327938
mean anomaly at epoch: 137.8934°
orbit number at epoch: 13455

The dashed part of the orbit path shows where the satellite is in the earth's shadow,  

DLR